AirNav   TITAN Aviation Fuels
 
 1013 users online  

KTGC Gibson County Airport
Trenton, Tennessee, USA

GOING TO TRENTON?


FAA INFORMATION EFFECTIVE 09 SEPTEMBER 2021

Location

FAA Identifier: TGC
Lat/Long: 35-55-56.8370N 088-50-56.1850W
35-55.947283N 088-50.936417W
35.9324547,-88.8489403
(estimated)
Elevation: 358.4 ft. / 109.2 m (surveyed)
Variation: 02W (2020)
From city: 5 miles SE of TRENTON, TN
Time zone: UTC -5 (UTC -6 during Standard Time)
Zip code: 38358

Airport Operations

Airport use: Open to the public
Control tower: no
ARTCC: MEMPHIS CENTER
FSS: JACKSON FLIGHT SERVICE STATION
NOTAMs facility: MKL (NOTAM-D service available)
Attendance: MON-SAT 0900-1700
Wind indicator: lighted
Segmented circle: yes
Lights: SS-SR
Beacon: white-green (lighted land airport)
Operates sunset to sunrise.

Airport Communications

CTAF/UNICOM: 122.8
  • APCH/DEP SVC PRVDD BY MEMPHIS ARTCC ON FREQS 134.65/316.15 (MCKELLAR RCAG).

Nearby radio navigation aids

VOR radial/distance  VOR name  Freq  Var
MKLr010/20.0MC KELLAR VOR/DME112.0001W
DYRr100/23.3DYERSBURG VORTAC116.8003E

 
NDB name  Hdg/Dist  Freq  Var  ID
MERSY013/25.639401WMKL -- -.- .-..

Airport Services

Fuel available: 100LL JET-A+
100LL:SELF SERVICE AVAILABLE 24/7 WITH CREDIT CARD.
Parking: hangars and tiedowns
Airframe service: NONE
Powerplant service: NONE
Bottled oxygen: NONE
Bulk oxygen: NONE

Runway Information

Runway 1/19

Dimensions: 4802 x 75 ft. / 1464 x 23 m
Surface: asphalt, in good condition
Weight bearing capacity: 
Single wheel: 30.0
Runway edge lights: medium intensity
RUNWAY 1  RUNWAY 19
Latitude: 35-55.556222N35-56.338162N
Longitude: 088-51.011577W088-50.861455W
Elevation: 358.0 ft.355.1 ft.
Traffic pattern: leftleft
Runway heading: 011 magnetic, 009 true191 magnetic, 189 true
Markings: nonprecision, in good conditionnonprecision, in good condition
Visual slope indicator: 2-light PAPI on left (3.00 degrees glide path)2-light PAPI on left (3.00 degrees glide path)
Runway end identifier lights: yesyes
Touchdown point: yes, no lightsyes, no lights
Obstructions: 7 ft. tree, 284 ft. from runway, 12:1 slope to clear108 ft. tree, 2028 ft. from runway, 2025 ft. right of centerline, 17:1 slope to clear

Airport Ownership and Management from official FAA records

Ownership: Publicly-owned
Owner: GIBSON COUNTY
ONE COURT SQUARE, SUITE 200
TRENTON, TN 38382
Phone 731-855-7613
Manager: ART HOPPERS
56 AIRPORT RD
MILAN, TN 38358
Phone 731-723-9596

Airport Operational Statistics

Aircraft based on the field: 21
Single engine airplanes: 21
    
Aircraft operations: avg 25/day *
59% local general aviation
21% air taxi
19% transient general aviation
1% military
* for 12-month period ending 31 August 2019

Additional Remarks

FOR CD CTC MEMPHIS ARTCC AT 901-368-8453/8449.

Instrument Procedures

NOTE: All procedures below are presented as PDF files. If you need a reader for these files, you should download the free Adobe Reader.

NOT FOR NAVIGATION. Please procure official charts for flight.
FAA instrument procedures published for use from 09 September 2021 at 0901Z to 07 October 2021 at 0900Z.

 
IAPs - Instrument Approach Procedures
RNAV (GPS) RWY 01   download (221KB)
RNAV (GPS) RWY 19   download (222KB)
NOTE: Special Take-Off Minimums/Departure Procedures apply   download (272KB)

Other nearby airports with instrument procedures:

M53 - Humboldt Municipal Airport (8 nm S)
KMKL - Mc Kellar-Sipes Regional Airport (20 nm S)
KHZD - Carroll County Airport (21 nm NE)
KDYR - Dyersburg Regional Airport (27 nm W)
KUCY - Everett-Stewart Regional Airport (28 nm N)
 
Loc | Ops | Rwys | IFR | FBO | Links
Com | Nav | Svcs | Stats | Notes
Area around KTGC (Gibson County Airport)
 
Road maps at: MapQuest Bing Google
 
Aerial photo
WARNING: Photo may not be current or correct
Aerial photo of KTGC (Gibson County Airport)
Photo taken 03-Nov-2007
from FL270

Do you have a better or more recent aerial photo of Gibson County Airport that you would like to share? If so, please send us your photo.

 
Sectional chart

 
Airport distance calculator
Flying to Gibson County Airport? Find the distance to fly.

From to KTGC

Sunrise and sunset
Times for 23-Sep-2021
 Local
(UTC-5)
 Zulu
(UTC)
Morning civil twilight06:2011:20
Sunrise06:4511:45
Sunset18:5023:50
Evening civil twilight19:1600:16

Current date and time
Zulu (UTC)  24-Sep-2021 02:58:43
Local (UTC-5)  23-Sep-2021 21:58:43
 
METAR
KMKL 
20nm S 
240253Z AUTO 19004KT 10SM CLR 12/11 A3009 RMK AO2 SLP189 T01170106 53010 $
KHZD 
21nm NE 
240235Z AUTO 00000KT 9SM CLR 12/10 A3007 RMK A01
KDYR 
27nm W 
240156Z AUTO 00000KT 10SM CLR 14/12 A3008 RMK AO2 SLP191 T01390122 PNO $
KUCY 
28nm N 
240235Z AUTO 00000KT 10SM FEW050 FEW055 11/11 A3006 RMK A01
KPHT 
33nm NE 
240235Z AUTO 00000KT 10SM SCT048 SCT055 10/09 A3008 RMK A01
KPVE 
36nm SE 
240235Z AUTO 00000KT 8SM CLR 12/12 A3008 RMK A01
TAF
KMKL 
20nm S 
231724Z 2318/2418 32010KT P6SM FEW050 FM240100 00000KT P6SM SKC FM240900 00000KT 4SM BR SKC FM241500 22004KT P6SM SKC
NOTAMs
Click for the latest NOTAMs
NOTAMs are issued by the DoD/FAA and will open in a separate window not controlled by AirNav.

 

 
 

FBO, Fuel Providers, and Aircraft Ground Support

  
 Business Name 
 
 Contact 
 
 Services / Description 
 
Fuel Prices
 
Comments
  
Gibson County Airport 731-723-9596
[email]
Airport management, Aviation fuel, Aircraft parking (ramp or tiedown), Hangar leasing / sales, Public telephone, Internet access, Restrooms

More info about Gibson County Airport
Titan
100LL Jet A
AS $4.30 $3.66 
 Updated 23-Sep-2021
 
   write
AS=Assisted/Self Service
Update Fuel Prices
 

Would you like to see your business listed on this page?

 If your business provides an interesting product or service to pilots, flight crews, aircraft, or users of the Gibson County Airport, you should consider listing it here.  To start the listing process, click on the button below
 
Add a business
 

Other Pages about Gibson County Airport

Update a link
 
Copyright © AirNav, LLC. All rights reserved. Privacy Policy  Contact